Location: Bottom School (historical)
(37.9078°N, 89.3593°W)
Time: 19:41:46
(UTC+00:00)

SL-4 R/B - Pass Details

Date: 09 July 2022
Orbit: 425 x 653 km, 51.6° (Epoch: 16 August)

Event Time Altitude Azimuth Distance (km) Brightness Sun altitude
Rises 09:09:59 0° 317° (NW) 2,540 5.4 -15.4°
Reaches altitude 10° 09:12:22 10° 331° (NNW) 1,699 4.7 -15.1°
Maximum altitude 09:15:37 25° 28° (NNE) 1,068 4.3 -14.6°
Drops below altitude 10° 09:19:04 10° 86° (E) 1,813 5.4 -14.1°
Sets 09:21:41 0° 99° (E) 2,753 6.2 -13.8°
